User: anonymous   Login
Location: Marcé
(47.5801°N, 0.3280°W)
Time: 08:58:08
(UTC+01:00)
Language:

FENGYUN 1C DEB - Orbit

View from above orbital plane
View from above orbital plane
View from above satellite
View from above satellite

Ground track
Ground track

The orbit data is extracted from the following two-line orbital elements,

1 31274U 99025BNG 22332.86567168  .00000612  00000-0  48478-3 0  9994
2 31274  99.0477 180.5151 0249271 215.1044 143.3463 13.81571856788606
Epoch (UTC): 28 November 2022 20:46:34
Eccentricity: 0.0249271
inclination: 99.0477°
perigee height: 775 km
apogee height: 1141 km
right ascension of ascending node: 180.5151°
argument of perigee: 215.1044°
revolutions per day: 13.81571856
mean anomaly at epoch: 143.3463°
orbit number at epoch: 78860

The dashed part of the orbit path shows where the satellite is in the earth's shadow,  

DLR